Details for UPS at KONT




Go Back


Latest METAR
Local Time

KONT 240753Z 26004KT 10SM BKN016 14/10 A3004 RMK AO2 SLP164 T01440100 402280128

24/05/2018, 00:58:29

Description
Results
UPS Logo
Number of Pilots based at KONT
0 Pilots Based here
Number of UPS Flights Departed from KONT
0 Flights Departed
Number of UPS Flights Arrived at KONT
0 Flights Arrived
Number of UPS Schedules Departing from KONT
188 Schedules
Number of UPS Schedules Arriving at KONT
206 Schedules
Number of UPS Schedules Departing from KONT availible today
43 Schedules Today
Number of UPS Schedules Arriving at KONT availible today
46 Schedules Today
Average Landing Rate at KONT
0 fpm
UPS Average Landing Rate at KONT
0 fpm
Total Fuel Purchased at KONT by UPS
0.00 kgs / 0.00 lbs

Pilots Based at KONT


Pilot ID
Pilot Name
Pilot Rank
No. of Flights
No. of Flying Hours
There are no pilots assigned to this hub!   Will you be the first?
Content